This demonstration page uses our WeatherBlox Daily Observations layout. Learn more.

Left ArrowRight Arrow

Hourly Observations for January 18, 2016

Temp ( °F °C ) Dew Point ( °F °C ) Humidity (%) Winds ( mph kmh ) Pressure ( in mb ) Visibility ( mi km ) Precip ( " mm )
12:51 am 00:51 Clear 37 2.8 26 -3.3 65 65 N N/A 30.16 1021 10 16 N/A
1:51 am 01:51 Clear 40 4.4 25 -3.9 55 55 N N/A 30.15 1021 10 16 N/A
2:51 am 02:51 Clear 33 0.6 26 -3.3 75 75 NE 6 9 30.16 1021 10 16 N/A
3:51 am 03:51 Clear 32 undefined 26 -3.3 79 79 N N/A 30.16 1022 10 16 N/A
4:51 am 04:51 Clear 31 -0.6 25 -3.9 79 79 S 5 7 30.17 1022 10 16 N/A
5:51 am 05:51 Clear 30 -1.1 24 -4.4 79 79 ESE 3 6 30.20 1023 10 16 N/A
6:51 am 06:51 Clear 31 -0.6 23 -5 72 72 SE 5 7 30.22 1023 10 16 N/A
7:51 am 07:51 Sunny 37 2.8 22 -5.6 54 54 SE 7 11 30.22 1023 10 16 N/A
8:51 am 08:51 Sunny 44 6.7 22 -5.6 41 41 SE 6 9 30.22 1024 10 16 N/A
9:51 am 09:51 Sunny 51 10.6 22 -5.6 32 32 E 9 15 30.20 1023 10 16 N/A
10:51 am 10:51 Sunny 53 11.7 24 -4.4 32 32 NNW 7 11 30.22 1024 10 16 N/A
11:51 am 11:51 Sunny 55 12.8 24 -4.4 30 30 N N/A 30.22 1023 10 16 N/A
12:51 pm 12:51 Sunny 58 14.4 24 -4.4 27 27 N N/A 30.16 1021 10 16 N/A
1:51 pm 13:51 Sunny 61 16.1 23 -5 23 23 VRB 7 11 30.10 1019 10 16 N/A
2:51 pm 14:51 Sunny 61 16.1 24 -4.4 24 24 ESE 6 9 30.09 1019 10 16 N/A
3:51 pm 15:51 Sunny 62 16.7 23 -5 22 22 N N/A 30.08 1019 10 16 N/A
4:51 pm 16:51 Sunny 62 16.7 24 -4.4 23 23 N N/A 30.08 1019 10 16 N/A
5:51 pm 17:51 Clear 56 13.3 28 -2.2 34 34 S 3 6 30.09 1019 10 16 N/A
6:51 pm 18:51 Clear 51 10.6 30 -1.1 44 44 N 6 9 30.11 1020 10 16 N/A
7:51 pm 19:51 Clear 49 9.4 29 -1.7 46 46 NE 3 6 30.10 1019 10 16 N/A
8:51 pm 20:51 Clear 46 7.8 30 -1.1 54 54 N N/A 30.09 1019 10 16 N/A
9:51 pm 21:51 Clear 43 6.1 29 -1.7 58 58 N N/A 30.09 1019 10 16 N/A
10:51 pm 22:51 Clear 40 4.4 30 -1.1 68 68 WNW 6 9 30.11 1020 10 16 N/A
11:51 pm 23:51 Clear 40 4.4 30 -1.1 68 68 ESE 3 6 30.09 1019 10 16 N/A

Powered by AerisWeather